TimeEST,TemperatureF,Dew PointF,Humidity,Sea Level PressureIn,VisibilityMPH,Wind Direction,Wind SpeedMPH,Gust SpeedMPH,PrecipitationIn,Events,Conditions,WindDirDegrees,DateUTC
12:53 AM,27.0,17.1,66,30.34,10.0,North,6.9,-,N/A,,Overcast,350,2013-02-09 05:53:00
1:53 AM,27.0,18.0,69,30.35,10.0,NNW,6.9,-,N/A,,Overcast,330,2013-02-09 06:53:00
2:53 AM,26.1,17.1,69,30.36,10.0,North,5.8,-,N/A,,Overcast,10,2013-02-09 07:53:00
3:53 AM,26.1,18.0,71,30.37,10.0,North,4.6,-,N/A,,Overcast,350,2013-02-09 08:53:00
4:53 AM,26.1,16.0,66,30.39,10.0,NNW,3.5,-,N/A,,Overcast,340,2013-02-09 09:53:00
5:53 AM,24.1,17.1,75,30.40,10.0,NNW,3.5,-,N/A,,Overcast,330,2013-02-09 10:53:00
6:09 AM,24.8,17.6,74,30.37,10.0,North,4.6,-,N/A,,Scattered Clouds,360,2013-02-09 11:09:00
6:53 AM,23.0,17.1,78,30.41,10.0,North,3.5,-,N/A,,Clear,360,2013-02-09 11:53:00
7:53 AM,19.0,15.1,85,30.44,8.0,Calm,Calm,-,N/A,,Clear,0,2013-02-09 12:53:00
8:53 AM,25.0,17.1,72,30.45,10.0,NE,3.5,-,N/A,,Clear,40,2013-02-09 13:53:00
9:53 AM,28.0,17.1,63,30.45,10.0,East,3.5,-,N/A,,Clear,80,2013-02-09 14:53:00
10:53 AM,28.9,17.1,61,30.45,10.0,Calm,Calm,-,N/A,,Clear,0,2013-02-09 15:53:00
11:53 AM,30.0,17.1,59,30.43,10.0,Calm,Calm,-,N/A,,Clear,0,2013-02-09 16:53:00
12:53 PM,33.1,19.9,59,30.42,10.0,NE,3.5,-,N/A,,Clear,50,2013-02-09 17:53:00
1:53 PM,35.1,21.0,57,30.41,10.0,ENE,4.6,-,N/A,,Clear,70,2013-02-09 18:53:00
2:53 PM,35.1,19.9,54,30.39,10.0,ENE,4.6,-,N/A,,Clear,60,2013-02-09 19:53:00
3:53 PM,37.0,21.9,54,30.38,10.0,NE,4.6,-,N/A,,Clear,50,2013-02-09 20:53:00
4:53 PM,36.0,21.0,55,30.37,10.0,NNE,4.6,-,N/A,,Clear,30,2013-02-09 21:53:00
5:53 PM,33.1,23.0,66,30.36,10.0,NE,4.6,-,N/A,,Clear,40,2013-02-09 22:53:00
6:53 PM,30.0,21.9,72,30.36,10.0,Calm,Calm,-,N/A,,Clear,0,2013-02-09 23:53:00
7:53 PM,28.0,21.9,78,30.37,10.0,Calm,Calm,-,N/A,,Clear,0,2013-02-10 00:53:00
8:53 PM,23.0,19.9,88,30.37,9.0,Calm,Calm,-,N/A,,Clear,0,2013-02-10 01:53:00
9:53 PM,25.0,19.9,81,30.35,10.0,Calm,Calm,-,N/A,,Clear,0,2013-02-10 02:53:00
10:53 PM,23.0,19.0,85,30.33,8.0,Calm,Calm,-,N/A,,Clear,0,2013-02-10 03:53:00
11:53 PM,25.0,19.0,78,30.31,10.0,Calm,Calm,-,N/A,,Clear,0,2013-02-10 04:53:00